Location: Agalgal
(30.9434°N, 9.0297°W)
Time: 20:34:27
(UTC+00:00)

Daily predictions for brighter satellites

Satellite Brightness Start Highest point End
(mag) Time Altitude Azimuth Time Altitude Azimuth Time Altitude Azimuth
Milstar 3 Cent rocket 4.1 18:12:44 10° SSW 18:17:10 22° SE 18:23:43 10° E
Meteor 1-4 Rocket 4.5 18:20:55 10° ESE 18:21:52 11° E 18:22:50 10° ENE
Cosmos 2227 Rocket 3.4 18:16:36 10° NNW 18:22:02 49° WSW 18:27:26 10° S
Cosmos 2278 4.3 18:16:59 10° SSW 18:22:34 62° WNW 18:28:12 10° NNE
USA 267 3.5 18:21:47 10° ESE 18:28:02 49° NE 18:34:17 10° NNW
SL-19 R/B 4.4 18:24:19 10° NNE 18:29:56 81° WNW 18:35:30 10° SSW
EXPRESS MD2 3.6 18:28:11 10° S 18:30:00 19° SE 18:31:22 12° E
CZ-2C R/B 1.7 18:27:28 10° WNW 18:30:56 40° N 18:34:01 11° ENE
Cosmos 1939 Rocket 3.9 18:28:37 10° S 18:32:22 50° W 18:36:13 10° NNW
NOSS 2-3 (D) 3.4 18:30:02 10° SSW 18:33:58 60° ESE 18:38:05 10° NE
SL-16 R/B 2.3 18:31:15 10° S 18:36:45 56° ESE 18:42:18 10° NNE
deb Chang Zheng 4 3.4 18:34:14 10° SSE 18:38:23 68° ENE 18:42:33 10° N
Landsat 5 3.6 18:34:23 10° NNE 18:38:50 78° ESE 18:43:20 10° S
NOSS 3-1 (C) 3.0 18:34:01 10° SSW 18:38:59 80° ESE 18:44:35 10° NNE
COSMO-SKYMED 1 2.6 18:38:52 10° N 18:43:13 85° WNW 18:47:32 10° SSW
Cosmos 1300 2.8 18:40:00 10° S 18:43:39 50° E 18:47:20 10° NNE
Meteor 2-10 Rocket 4.4 18:38:53 10° SSE 18:43:45 30° E 18:48:27 10° NNE
NOSS 2-3 (C) 3.3 18:42:38 10° SSW 18:46:37 87° WNW 18:50:49 10° NNE
Cosmos 304 Rocket 4.1 18:42:14 10° S 18:46:42 41° ESE 18:51:11 10° NNE
ATLAS 5 CENTAUR R/B 4.1 18:45:17 10° W 18:47:26 14° NW 18:49:41 10° NNW
Cosmos 2082 4.3 18:45:25 10° NNW 18:50:56 60° WSW 18:56:26 10° S
Cosmos 2322 Rocket 2.3 18:45:43 10° S 18:51:09 55° ESE 18:56:36 10° NNE
Cosmos 1892 Rocket 3.5 18:47:53 10° N 18:52:20 89° ENE 18:56:44 10° S
Delta 2 Rocket 3.3 18:50:48 10° W 18:54:13 51° NNW 18:56:12 21° NE
Cosmos 1703 3.3 18:51:50 10° N 18:55:44 79° W 18:59:36 10° S
CZ-4C R/B 3.2 18:55:15 10° N 18:58:33 67° WNW 19:01:45 10° SSW
Cosmos 332 Rocket 3.8 18:54:30 10° S 18:59:18 59° ESE 19:04:07 10° NNE
Cosmos 2333 Rocket 3.9 18:56:33 10° SE 18:58:07 14° ESE 18:58:07 14° ESE
Cosmos 2360 Rocket 2.6 18:57:48 10° S 19:02:58 38° ESE 19:08:09 10° NE
IRIS 3.4 19:03:31 10° WNW 19:05:50 83° SSW 19:06:21 49° SE
Meteor 1-11 4.3 19:03:32 10° N 19:09:00 52° E 19:14:30 10° SSE
Cosmos 405 Rocket 3.1 19:05:13 10° NNW 19:09:11 68° W 19:13:11 10° S
CZ-4B R/B 3.6 19:04:46 10° S 19:10:22 69° WSW 19:16:01 10° NNW
H-2A R/B 2.7 19:06:15 10° S 19:11:29 61° W 19:16:52 10° NNW
Cosmos 1605 Rocket 3.9 19:07:41 10° S 19:13:50 70° E 19:20:07 10° N
DMSP B5D2-2 4.0 19:12:10 10° NNE 19:17:21 63° E 19:22:30 10° S
Cosmos 1626 Rocket 3.6 19:13:23 10° N 19:17:35 50° E 19:21:45 10° SSE
Iridium 4 Rocket 3.5 19:14:31 10° N 19:19:16 80° W 19:24:28 10° S
ARGOS 3.1 19:14:34 10° SSE 19:19:57 88° W 19:25:23 10° NNW
Cosmos 489 Rocket 4.4 19:15:45 10° NNW 19:21:58 88° WSW 19:28:11 10° SSE
Spot 2 3.8 19:18:26 10° SSE 19:22:28 75° ENE 19:26:39 10° N
Cosmos 1328 4.3 19:22:13 10° NNW 19:26:13 63° W 19:30:11 10° S
YAOGAN 1 2.4 19:26:23 10° SSE 19:30:40 72° ENE 19:34:58 10° N
Cosmos 2263 Rocket 2.4 19:27:21 10° NNW 19:32:53 71° WSW 19:38:23 10° S
H-2A R/B 2.5 19:28:34 10° S 19:32:58 84° WSW 19:37:15 10° NNW
Cosmos 2227 4.1 19:28:07 10° NNW 19:33:55 88° ENE 19:39:38 10° SSE
Cosmos 724 4.2 19:30:17 10° NNW 19:36:12 89° ENE 19:40:21 20° SSE
CZ-4 R/B 1.2 19:36:51 31° S 19:38:39 88° W 19:42:41 10° NNW
USA 229 DEB 3.8 19:34:38 10° SW 19:40:50 67° WNW 19:47:17 10° NNE
USA 229 3.8 19:34:44 10° SW 19:40:56 68° WNW 19:47:19 11° NNE
Cosmos 220 Rocket 4.4 19:37:05 10° SSW 19:41:28 65° WNW 19:44:42 18° N
OAO 3 Rocket 3.2 19:38:05 10° SW 19:42:50 60° SSE 19:43:01 59° SE
Tiangong 3.9 19:41:26 10° NNW 19:42:12 12° NNW 19:42:12 12° NNW
H-2A R/B 2.4 19:39:51 10° N 19:43:56 60° WNW 19:48:03 10° SSW
Okean O Rocket 3.7 19:42:06 10° SSW 19:45:47 27° W 19:49:29 10° NW
NOSS 3-1 (A) 4.4 19:58:55 10° WSW 20:03:36 36° NW 20:07:42 15° N
IRS-1C Rocket 4.1 20:02:37 56° S 20:03:44 79° WSW 20:09:00 10° NNW
Cosmos 1844 Rocket 4.4 20:01:34 10° N 20:03:21 20° N 20:03:21 20° N
CZ-2C R/B 3.6 20:07:11 10° WNW 20:08:13 18° WNW 20:08:13 18° WNW
USA 267 4.5 20:05:05 10° S 20:11:01 37° SW 20:16:59 10° WNW
Cosmos 2333 Rocket 3.9 20:37:50 10° SW 20:40:16 26° SW 20:40:16 26° SW
Cosmos 2360 Rocket 4.3 20:42:38 10° WSW 20:47:00 23° WNW 20:50:02 15° NNW
Milstar 3 Cent rocket 3.7 20:47:04 10° WSW 20:54:06 69° S 20:54:06 69° S
CZ-3 Stage 3 3.9 20:52:42 10° WNW 21:13:13 52° SW 21:13:13 52° SW
